Location: Gisborne
(38.6530°S, 178.0040°E)
Time: 04:38:26
(UTC+13:00)

Cosmos 1818 - Pass Details

Date: 24 January 2019
Orbit: 775 x 799 km, 65.0° (Epoch: 17 October)

Event Time Altitude Azimuth Distance (km) Brightness Sun altitude
Exits shadow 22:05:06 26° 54° (NE) 1,525 4.4 -16.3°
Maximum altitude 22:05:56 27° 70° (ENE) 1,489 4.5 -16.4°
Drops below altitude 10° 22:10:29 10° 126° (SE) 2,383 5.9 -17.1°
Sets 22:13:13 0° 137° (SE) 3,316 6.8 -17.5°
